• MPC Preparation (Info)

  • MPEC 2018-V175: 2018 VV7

    The following Minor Planet Electronic Circular may be linked-to from your own Web pages, but must not otherwise be redistributed electronically.

    A form allowing access to any MPEC is at the bottom of this page.


    Read MPEC 2018-V174 Read MPEC 2018-V176


    M.P.E.C. 2018-V175                               Issued 2018 Nov. 12, 17:27 UT
    
         The Minor Planet Electronic Circulars contain information on unusual
             minor planets and routine data on comets.  They are published
        on behalf of Division F of the International Astronomical Union by the
              Minor Planet Center, Smithsonian Astrophysical Observatory,
                              Cambridge, MA 02138, U.S.A.
    
                 Prepared using the Tamkin Foundation Computer Network
    
                                  MPC@CFA.HARVARD.EDU
                URL https://www.minorplanetcenter.net/    ISSN 1523-6714
    
                                       2018 VV7
    
    Observations:
         K18V07V  C2018 11 06.45254803 20 40.789-08 56 36.45         21.0 GVEV175F52
         K18V07V  C2018 11 06.46536903 20 47.807-08 55 18.59         20.5 GVEV175F52
         K18V07V  C2018 11 06.49105403 21 01.879-08 52 41.97         20.9 GVEV175F52
         K18V07V* C2018 11 11.33268 04 32 54.66 +03 46 32.9          19.9 GVEV175G96
         K18V07V  C2018 11 11.33786 04 33 00.65 +03 47 42.6          20.1 GVEV175G96
         K18V07V  C2018 11 11.34302 04 33 06.66 +03 48 52.1          20.0 GVEV175G96
         K18V07V  C2018 11 11.34816 04 33 12.57 +03 50 01.0          19.4 GVEV175G96
         K18V07V  C2018 11 11.43756 04 34 57.55 +04 10 11.4          19.5 GVEV175I52
         K18V07V  C2018 11 11.43877 04 34 58.98 +04 10 27.7          19.7 GVEV175I52
         K18V07V  C2018 11 11.43999 04 35 00.45 +04 10 44.1          19.9 GVEV175I52
         K18V07V  C2018 11 11.44120 04 35 01.86 +04 11 00.3          19.9 GVEV175I52
         K18V07V KC2018 11 11.97343404 46 51.16 +06 15 24.8          19.8 GVEV175L01
         K18V07V KC2018 11 11.97442104 46 52.42 +06 15 38.9          20.0 GVEV175L01
         K18V07V KC2018 11 11.97580404 46 54.21 +06 15 58.8          20.0 GVEV175L01
         K18V07V  C2018 11 12.22749 04 52 51.52 +07 18 35.0          19.9 GVEV175I52
         K18V07V  C2018 11 12.22805 04 52 52.26 +07 18 43.1          19.7 GVEV175I52
         K18V07V  C2018 11 12.22861 04 52 53.04 +07 18 52.7          20.1 GVEV175I52
         K18V07V  C2018 11 12.22918 04 52 53.79 +07 19 01.9          20.2 GVEV175I52
    
    Observer details:
    F52 Pan-STARRS 2, Haleakala.  Observers J. Bulger, K. Chambers, T. Dukes,
        T. Lowe, E. Magnier, A. Schultz, M. Willman.  Measurers S. Chastel,
        M. Huber, Y. Ramanjooloo, R. Wainscoat, R. Weryk.  1.8-m Ritchey-Chretien
        + CCD.
    G96 Mt. Lemmon Survey.  Observer D. C. Fuls.  Measurers B. M. Africano,
        E. J. Christensen, G. A. Farneth, D. C. Fuls, A. R. Gibbs, A. D. Grauer,
        H. Groeller, J. A. Johnson, R. A. Kowalski, S. M. Larson, G. J. Leonard,
        R. L. Seaman, F. C. Shelly.  1.5-m reflector + 10K CCD.
    I52 Steward Observatory, Mt. Lemmon Station.  Observer H. Groeller.
        Measurers B. M. Africano, E. J. Christensen, G. A. Farneth, D. C. Fuls,
        A. R. Gibbs, A. D. Grauer, H. Groeller, J. A. Johnson, R. A. Kowalski,
        S. M. Larson, G. J. Leonard, R. L. Seaman, F. C. Shelly.  1.0-m reflector
        + CCD.
    L01 Visnjan Observatory, Tican.  Observer K. Korlevic.  1.0-m f/2.9 reflector
        + CCD.
    
    Orbital elements:
    2018 VV7                                                 Earth MOID = 0.0183 AU
    Epoch 2019 Apr. 27.0 TT = JDT 2458600.5                 MPC
    M  53.09431              (2000.0)            P               Q
    n   0.36509445     Peri.   20.22988     +0.26850404     -0.95806276
    a   1.9387980      Node    54.32217     +0.86597477     +0.19455899
    e   0.4888856      Incl.    7.07896     +0.42189249     +0.21038665
    P   2.70           H   26.2           G   0.15           U   7
    Residuals in seconds of arc
    181106 F52  0.0   0.0     181111 G96  0.8-  0.3-    181111 L01  0.3+  0.2+
    181106 F52  0.2+  0.1+    181111 I52  0.1-  0.3+    181111 L01  0.3+  0.1-
    181106 F52  0.2-  0.1-    181111 I52  0.2-  0.1+    181112 I52  0.0   0.6-
    181111 G96  0.4+  0.1+    181111 I52  0.1+  0.1-    181112 I52  0.3-  0.9-
    181111 G96  0.0   0.1+    181111 I52  0.3-  0.3-    181112 I52  0.0   0.2+
    181111 G96  0.2+  0.1+    181111 L01  0.6+  0.5+    181112 I52  0.3-  0.8+
    
    Ephemeris:
    2018 VV7                 a,e,i = 1.94, 0.49, 7                   q = 0.9909
    Date    TT    R. A. (2000) Decl.     Delta      r     Elong.  Phase     V
    2018 10 13    01 53 30.6 -18 27 52   0.1747  1.1551   152.0    24.0    23.8
    ...
    2018 10 28    02 23 51.6 -16 58 09   0.09583 1.0776   149.8    27.6    22.5
    ...
    2018 11 05    03 07 15.2 -11 05 05   0.05917 1.0445   152.5    26.0    21.3
    ...
    2018 11 11    04 26 07.3 +02 35 25   0.03753 1.0243   154.9    24.2    20.3
    2018 11 12    04 47 22.9 +06 24 17   0.03507 1.0214   153.2    25.9    20.2
    2018 11 13    05 11 48.0 +10 40 11   0.03313 1.0185   150.0    29.1    20.1
    ...
    2018 11 19    08 21 25.6 +33 11 40   0.03573 1.0044   115.7    62.4    21.2
    ...
    2018 11 27    10 53 19.8 +36 17 15   0.06310 0.9932    94.0    82.3    23.1
    ...
    2018 12 12    12 07 52.0 +33 27 35   0.1248  0.9974    92.3    80.5    24.5
    
    A. U. Tomatic                (C) Copyright 2018 MPC           M.P.E.C. 2018-V175
    

    Read MPEC 2018-V174 Read MPEC 2018-V176


    MPEC number:

    Enter an MPEC number in one of the following forms:

    • 1997-B01 (the full form)
    • J97B01 (the packed version of the full form)
    • B01 (the abbreviated form)